[Iaude] MPEC W09: 2016 VX5 [a=2.31,e=0.47,i=26.2,H=21.6]

mpec at si.edu mpec at si.edu
Thu Nov 17 22:19:22 EST 2016


M.P.E.C. 2016-W09                                Issued 2016 Nov. 18, 03:15 UT
 
     The Minor Planet Electronic Circulars contain information on unusual
         minor planets and routine data on comets.  They are published
    on behalf of Division F of the International Astronomical Union by the
          Minor Planet Center, Smithsonian Astrophysical Observatory,
                          Cambridge, MA 02138, U.S.A.

             Prepared using the Tamkin Foundation Computer Network

                              MPC at CFA.HARVARD.EDU
            URL http://www.minorplanetcenter.net/    ISSN 1523-6714


                                   2016 VX5
 
Observations:
     K16V05X* C2016 11 11.51551 05 46 11.23 +35 17 20.4          20.7 VqEW009G96
     K16V05X  C2016 11 11.51716 05 46 11.26 +35 17 11.7          20.8 VqEW009G96
     K16V05X  C2016 11 11.51883 05 46 11.28 +35 17 02.6          20.6 VqEW009G96
     K16V05X  C2016 11 11.53197 05 46 11.10 +35 15 53.7          21.4 VqEW009G96
     K16V05X  C2016 11 11.53305 05 46 11.06 +35 15 47.7          20.6 VqEW009G96
     K16V05X  C2016 11 11.53413 05 46 11.07 +35 15 41.8                qEW009G96
     K16V05X  C2016 11 12.48728005 46 07.39 +33 52 05.5          20.2 GUEW009H01
     K16V05X  C2016 11 12.49094705 46 07.35 +33 51 46.0          20.8 GUEW009H01
     K16V05X  C2016 11 12.50116005 46 07.19 +33 50 51.2          20.6 GUEW009H01
     K16V05X  C2016 11 12.50789805 46 07.08 +33 50 15.1          20.6 GUEW009H01
     K16V05X  C2016 11 13.26428305 46 03.44 +32 42 55.5          20.7 GUEW009H01
     K16V05X  C2016 11 13.26872205 46 03.37 +32 42 32.0          21.2 GUEW009H01
     K16V05X  C2016 11 13.27796905 46 03.20 +32 41 42.8          20.0 GUEW009H01
     K16V05X  C2016 11 13.28492605 46 03.06 +32 41 05.9          20.2 GUEW009H01
     K16V05X  C2016 11 15.37694505 45 31.59 +29 31 16.3          20.2 GUEW009H01
     K16V05X  C2016 11 15.38881505 45 31.22 +29 30 11.0          20.3 GUEW009H01
     K16V05X  C2016 11 15.39497205 45 31.05 +29 29 37.0          20.2 GUEW009H01
     K16V05X  C2016 11 15.39825705 45 30.94 +29 29 18.8          20.1 GUEW009H01
 
Observer details:
G96 Mt. Lemmon Survey.  Observer R. G. Matheny.  Measurers E. J. Christensen,
    D. C. Fuls, A. R. Gibbs, A. D. Grauer, J. A. Johnson, R. A. Kowalski,
    S. M. Larson, G. J. Leonard, R. G. Matheny, R. L. Seaman, F. C. Shelly.
    1.5-m reflector + 10K CCD.
H01 Magdalena Ridge Observatory, Socorro.  Observers W. H. Ryan, E. V. Ryan.
    Measurer W. H. Ryan.  2.4-m f/8.9 reflector + CCD.
 
Orbital elements:
2016 VX5                                                 Earth MOID = 0.2619 AU
Epoch 2017 Feb. 16.0 TT = JDT 2457800.5                 MPC
M  31.68225              (2000.0)            P               Q
n   0.27991720     Peri.  158.86286     +0.70194820     -0.59192702
a   2.3144599      Node   243.81497     +0.57361682     +0.79949870
e   0.4683571      Incl.   26.19282     +0.42217587     -0.10209914
P   3.52           H   21.6           G   0.15           U   7
Residuals in seconds of arc
161111 G96  0.5-  0.1+    161112 H01  0.2-  0.1-    161113 H01  0.1+  0.0
161111 G96  0.1+  0.1+    161112 H01  0.0   0.0     161113 H01  0.0   0.1+
161111 G96  0.5+  0.2-    161112 H01  0.1+  0.1-    161115 H01  0.0   0.0
161111 G96  0.1+  0.3+    161112 H01  0.1+  0.1-    161115 H01  0.1-  0.1+
161111 G96  0.2-  0.0     161113 H01  0.1-  0.0     161115 H01  0.1+  0.0
161111 G96  0.0   0.2-    161113 H01  0.0   0.1+    161115 H01  0.0   0.1-

Ephemeris:
2016 VX5                 a,e,i = 2.31, 0.47, 26                  q = 1.2305
Date    TT    R. A. (2000) Decl.     Delta      r     Elong.  Phase     V
2016 10 19    05 15 49.9 +59 59 16   0.4136  1.2326   115.6    46.8    21.9
...
2016 11 03    05 43 06.6 +46 29 39   0.3356  1.2335   129.7    38.3    21.2
...
2016 11 11    05 46 12.8 +36 02 03   0.3088  1.2423   139.9    30.9    20.8
...
2016 11 17    05 44 55.9 +27 01 17   0.2993  1.2526   148.0    24.7    20.6
2016 11 18    05 44 29.2 +25 28 01   0.2988  1.2546   149.3    23.7    20.6
2016 11 19    05 43 59.0 +23 54 25   0.2985  1.2567   150.5    22.8    20.6
...
2016 11 25    05 40 00.2 +14 39 04   0.3037  1.2710   156.2    18.2    20.5
...
2016 12 03    05 33 10.9 +03 35 55   0.3280  1.2943   157.1    17.2    20.6
...
2016 12 18    05 21 09.4 -10 10 49   0.4167  1.3496   146.0    24.1    21.5

A. U. Tomatic                (C) Copyright 2016 MPC           M.P.E.C. 2016-W09




More information about the Iaude mailing list